User: anonymous
Location: Stigler
(35.2540°N, 95.1230°W)
Time: 21:47:49
(UTC-05:00)
Language:

Cosmos 1805 - Orbit

View from above orbital plane
View from above orbital plane
View from above satellite
View from above satellite

Ground track
Ground track

The orbit data is extracted from the following two-line orbital elements,

1 17191U 86097A   14110.47084393  .00008422  00000-0  55883-3 0  8722
2 17191 082.5005 081.8262 0010959 053.0133 307.2096 15.07074501489533
Epoch (UTC): 20 April 2014 11:18:00
Eccentricity: 0.0010959
inclination: 82.5005°
perigee height: 537 km
apogee height: 553 km
right ascension of ascending node: 81.8262°
argument of perigee: 53.0133°
revolutions per day: 15.07074501
mean anomaly at epoch: 307.2096°
orbit number at epoch: 48953

The dashed part of the orbit path shows where the satellite is in the earth's shadow,  

DLR